Theta_e
325 316 314 313 305 300 296 300 303 303 307 312 314 311 310 314 311 306 327 333 336 340 344 346 347 349 348 349 348 348 347 343 342 341 339 338 338 338 337 338 341 341 339 340 340 336 336 336 334
317 314 314 308 298 295 296 300 300 304 313 317 317 316 314 313 323 322 328 332 338 341 343 346 345 348 347 347 347 347 346 343 341 340 338 338 338 337 337 340 340 340 338 340 336 336 335 335 333
317 313 310 302 295 295 295 300 302 309 314 311 315 318 317 316 324 325 329 335 339 341 343 344 345 348 348 347 348 347 346 345 343 340 338 337 336 336 337 340 339 338 338 338 336 335 334 333 333
312 313 309 302 300 302 299 303 308 309 310 314 315 313 320 326 325 328 331 336 339 338 341 343 345 347 347 347 347 347 346 345 344 340 339 337 337 337 337 336 338 337 336 337 335 335 333 333 334
312 308 303 300 301 302 301 306 307 306 306 312 314 311 316 325 331 331 334 338 336 336 339 343 344 345 346 347 346 346 345 344 344 342 339 337 336 335 335 336 337 336 335 335 335 334 333 333 333
310 307 300 297 300 301 305 307 305 305 309 313 313 313 316 329 329 332 335 337 336 335 337 341 337 339 342 345 344 344 344 344 343 342 339 338 336 335 334 334 334 335 333 335 335 334 332 333 332
307 303 300 299 299 299 305 305 304 305 310 312 315 311 317 326 330 333 335 335 335 335 336 337 338 337 334 337 338 338 339 340 342 341 340 338 337 336 335 334 332 333 334 334 334 334 332 332 331
308 304 298 299 299 300 304 304 305 308 309 317 318 310 313 325 331 332 333 333 333 333 334 333 333 333 333 334 329 331 334 335 334 334 332 332 332 332 332 330 332 331 333 333 332 332 333 331 330
311 302 298 300 299 303 303 303 305 310 313 315 318 315 318 328 330 329 329 329 329 330 331 330 329 329 329 330 326 326 328 328 327 327 326 327 331 331 330 328 331 331 332 331 329 329 329 330 328
308 300 301 306 304 302 303 302 304 309 311 312 315 321 324 326 328 326 325 325 326 325 328 329 328 327 327 327 327 328 327 328 327 327 328 329 329 329 329 324 325 327 328 330 329 327 324 322 325
307 302 304 306 305 302 303 301 305 307 307 311 312 316 320 324 325 324 324 324 324 325 327 328 327 327 327 326 326 326 326 326 325 325 326 326 327 327 327 327 325 325 319 323 322 323 323 322 322
305 309 309 309 311 303 301 303 303 307 308 311 313 319 321 322 323 323 323 323 323 324 326 329 327 326 326 325 325 325 325 324 324 324 324 325 325 325 324 324 323 322 322 322 323 323 322 321 321
308 309 312 314 311 307 300 300 302 304 308 311 311 319 320 321 322 324 325 325 325 323 325 327 327 325 325 324 324 324 324 323 324 323 324 324 324 324 323 323 322 321 320 321 322 322 321 320 320
311 312 311 312 310 312 306 299 299 302 307 312 315 317 320 321 322 323 322 323 323 324 324 326 327 326 325 324 323 323 323 324 323 323 323 323 324 323 323 322 321 320 319 320 321 322 321 320 319
311 303 305 304 307 306 302 298 297 301 309 309 313 315 317 319 321 322 324 324 324 324 324 325 327 327 325 324 323 323 323 323 323 322 323 323 323 323 323 322 320 320 320 319 320 320 320 319 318
303 303 296 305 308 307 300 296 300 301 307 307 311 313 316 318 320 322 323 325 325 325 324 325 327 327 326 325 324 323 323 323 323 323 323 323 323 323 322 321 320 319 319 320 320 320 318 318 318
300 290 293 298 306 303 299 295 301 301 304 304 307 311 314 316 318 320 323 324 325 326 325 324 326 326 326 326 325 324 323 322 323 323 323 322 323 323 323 322 321 320 320 320 319 319 318 318 317
293 293 293 294 301 303 299 300 305 302 298 302 302 308 312 314 317 321 322 324 325 325 326 326 325 325 326 326 325 324 323 322 322 322 323 323 323 323 323 322 322 321 320 320 318 317 317 318 318
296 296 293 298 300 300 299 301 303 301 299 298 298 301 307 312 318 320 321 323 324 324 324 325 325 325 324 323 322 321 321 322 322 322 322 323 323 323 323 323 322 321 320 321 320 318 317 317 317
296 295 294 298 300 299 300 299 303 302 301 303 303 301 300 306 311 315 319 320 322 323 324 324 325 326 325 325 325 325 324 324 324 324 323 323 323 324 324 324 323 322 321 320 319 318 317 317 317
296 294 294 295 295 297 295 295 298 301 300 301 302 305 304 302 303 307 314 318 321 322 323 324 324 326 326 327 326 324 323 322 322 322 323 322 323 323 323 323 323 322 322 322 320 319 317 317 316
293 299 298 295 294 290 298 286 294 299 300 301 303 302 304 303 303 304 304 312 319 321 324 324 325 325 327 328 326 324 323 322 324 325 325 325 323 323 323 323 322 322 321 321 321 320 320 319 317
294 299 299 298 294 292 291 288 293 296 296 300 303 303 305 306 306 306 306 306 313 320 322 324 324 324 325 327 328 326 325 326 327 326 324 325 324 324 323 322 322 321 321 321 321 319 319 319 319
300 298 297 296 294 286 292 290 291 294 296 300 304 306 307 305 306 307 308 307 307 314 320 323 323 323 324 324 326 326 325 325 324 323 322 323 324 323 324 323 323 322 322 321 321 321 320 319 319
298 294 286 284 283 284 292 288 293 294 297 301 303 306 308 305 306 307 305 304 304 307 315 319 321 321 322 322 324 325 325 325 324 324 322 323 321 322 322 323 323 322 322 322 322 321 320 319 318
294 294 285 280 279 284 287 286 292 299 302 299 301 305 302 301 303 303 304 305 305 305 309 316 318 320 320 321 322 324 325 325 324 324 323 322 323 322 323 322 323 323 323 322 322 320 320 319 318
294 290 296 283 275 278 283 288 293 295 295 297 301 297 298 300 299 298 299 303 304 304 305 312 315 318 318 320 321 322 323 323 323 324 324 323 323 322 321 321 321 322 322 322 321 320 320 320 319
296 298 289 288 280 278 281 286 288 291 296 297 297 299 301 301 299 298 296 298 300 301 303 308 313 315 316 317 319 320 321 322 323 322 321 321 322 321 320 320 320 320 320 321 321 320 320 320 320
292 292 293 292 287 282 281 285 290 294 295 298 301 302 302 304 303 302 296 296 298 298 300 304 309 311 312 314 316 317 318 319 319 320 320 320 320 319 319 320 320 320 320 321 320 320 320 319 319
291 285 292 287 285 287 286 287 291 296 298 300 301 303 304 301 300 296 295 294 294 294 296 300 303 306 309 311 311 312 312 313 315 316 316 317 317 319 319 320 320 320 320 320 320 319 320 319 318
Wind_Speed
7 5 2 5 5 5 1 2 1 3 2 1 2 4 3 3 2 2 1 5 10 10 7 8 10 11 12 13 13 14 15 15 15 15 15 16 15 14 14 13 14 14 16 15 17 17 17 17 17
5 4 5 3 5 3 3 2 4 4 3 6 4 2 1 1 1 3 8 6 9 10 7 8 10 11 11 11 12 14 15 15 15 16 15 15 15 14 14 13 13 14 15 15 16 17 17 16 17
4 4 4 5 3 1 3 4 3 2 5 1 3 2 2 3 0 10 1 12 9 8 8 7 9 12 11 11 12 12 13 14 15 16 15 14 14 14 13 12 13 15 14 15 16 16 16 16 17
5 5 4 4 1 2 3 1 4 6 2 1 2 2 1 3 7 6 10 13 10 7 7 8 8 11 11 10 11 12 12 13 14 15 15 14 14 12 12 12 12 15 14 14 15 16 16 16 16
4 4 4 3 2 3 3 1 6 5 3 3 2 3 1 0 3 11 14 12 11 7 7 7 9 10 9 10 10 11 11 11 13 14 15 14 14 13 12 12 12 14 12 13 14 14 15 15 16
4 2 3 1 4 3 4 3 4 3 3 3 3 5 3 1 8 10 14 12 10 9 6 6 8 8 8 9 9 8 11 11 15 15 15 14 13 12 12 12 12 12 12 12 13 14 15 15 15
4 3 2 3 3 5 2 5 3 5 4 4 5 5 1 4 4 9 10 10 9 8 7 6 7 7 7 6 7 7 11 10 12 13 15 15 14 12 11 10 11 10 12 12 12 13 13 14 13
4 3 3 3 2 5 3 5 1 5 6 2 4 4 4 8 11 7 8 9 8 8 7 7 6 6 6 5 8 8 7 10 12 11 9 12 13 11 10 8 9 10 11 12 12 11 11 12 11
3 2 2 3 5 5 3 4 2 0 4 2 5 3 2 12 15 8 6 5 7 5 7 6 6 7 6 6 6 10 10 11 12 12 11 8 7 7 8 7 9 10 10 11 11 11 10 9 9
5 0 5 1 1 3 2 5 5 4 3 4 3 2 4 15 16 14 12 11 9 10 7 7 8 8 7 5 6 7 6 6 6 6 7 4 6 5 6 7 8 8 7 8 9 9 8 6 4
3 6 2 4 2 2 4 3 6 5 4 8 11 8 12 13 15 15 13 13 14 12 8 9 8 7 8 7 5 3 3 4 4 6 6 5 4 4 3 3 3 3 4 3 3 4 3 4 3
5 5 4 5 8 6 5 4 5 7 7 2 8 11 15 18 18 16 17 15 14 12 12 11 10 8 7 5 5 5 5 4 4 6 7 5 3 3 3 3 3 3 2 3 2 2 3 3 3
5 4 5 5 3 5 4 8 7 9 9 4 5 11 17 17 17 16 13 12 12 13 12 12 10 10 8 8 6 6 6 5 6 6 7 6 5 4 3 3 3 2 2 2 2 2 2 2 3
9 7 5 2 4 4 3 6 3 7 5 3 6 10 12 16 18 12 11 13 12 12 13 12 12 11 10 9 9 7 6 7 6 5 6 7 5 5 5 4 3 3 3 2 2 2 2 3 3
6 4 6 7 6 3 3 8 9 8 3 6 8 6 7 10 11 16 15 14 14 11 11 13 13 11 11 10 9 7 7 6 7 6 8 8 7 7 6 4 4 4 4 5 3 4 3 3 3
4 2 6 4 11 2 5 12 7 6 6 9 8 7 8 11 13 13 12 13 12 11 13 12 10 12 12 10 8 7 7 7 6 6 7 9 9 8 6 5 5 5 4 4 4 4 3 4 4
5 5 6 3 4 8 6 10 7 4 7 8 8 8 9 9 9 11 12 13 13 13 13 13 13 14 13 11 9 9 9 8 7 6 7 9 9 9 7 6 6 6 5 5 4 4 4 4 5
7 7 4 6 2 7 8 17 17 6 5 10 8 7 8 10 18 14 12 12 12 12 13 12 12 13 13 9 7 6 6 6 6 7 8 11 9 10 9 6 7 6 6 6 5 6 5 5 5
7 5 7 4 5 4 9 18 16 7 6 9 10 10 11 14 11 8 11 12 11 12 13 15 15 14 10 8 7 7 8 8 7 8 11 10 9 10 10 8 8 8 8 9 8 6 7 5 4
2 5 4 1 4 5 5 17 15 9 8 13 14 12 13 11 9 8 10 11 15 16 16 15 16 15 13 10 8 6 7 7 7 7 9 11 11 12 10 10 9 10 8 9 9 8 3 4 5
13 10 5 4 2 2 4 18 16 12 10 9 10 13 12 15 16 12 11 14 13 15 18 17 17 16 15 15 7 4 3 1 5 7 8 10 12 11 12 11 10 9 9 8 9 9 10 8 5
19 13 5 5 6 8 9 14 14 9 17 15 16 14 19 14 13 13 13 13 15 17 13 16 16 17 15 16 12 14 11 11 9 8 8 9 12 13 12 12 11 10 7 9 9 8 10 9 9
10 7 13 14 7 2 5 5 11 9 15 12 15 18 17 17 17 17 16 17 18 16 16 16 16 16 16 16 17 13 14 11 8 8 10 10 9 12 12 12 10 11 9 11 11 10 11 9 9
7 5 4 2 10 15 22 14 18 14 9 12 18 20 15 15 16 16 16 14 13 11 13 13 15 16 16 17 19 18 17 14 9 9 9 8 8 7 11 11 11 11 11 11 10 11 12 11 10
9 16 9 9 8 6 16 10 26 6 9 15 19 22 20 12 14 17 16 13 13 14 15 13 16 17 17 17 17 19 18 15 15 12 9 9 7 7 10 11 10 9 11 11 10 10 11 11 11
24 15 4 13 6 22 9 15 14 13 19 11 16 17 11 8 11 11 13 13 15 16 16 16 16 17 15 16 18 16 16 10 11 10 9 8 9 7 7 9 10 11 12 10 10 9 10 10 11
13 21 26 2 2 2 6 13 10 5 6 8 18 8 14 16 13 14 12 14 13 12 15 17 16 15 15 16 13 14 14 13 13 13 8 8 8 6 8 9 10 11 11 11 10 8 10 10 10
24 11 13 11 10 12 6 19 17 12 20 11 13 19 21 19 11 11 10 11 10 10 11 12 15 17 14 14 13 12 13 13 12 8 11 10 8 9 9 9 9 10 10 10 10 9 10 10 9
15 15 16 13 15 13 19 19 10 17 15 20 22 22 18 16 16 16 9 6 7 6 8 12 13 12 11 13 12 12 10 9 9 9 8 9 8 8 8 9 9 10 9 10 10 10 10 9 9
4 4 22 14 15 19 23 25 1 15 23 21 21 24 15 8 8 5 5 7 7 8 9 12 10 11 11 9 8 8 7 7 8 8 8 7 7 6 7 7 7 8 8 8 8 10 9 10 12
Wind_Direction
331 338 56 42 49 62 38 219 147 141 162 174 92 139 193 71 149 185 360 162 145 141 147 140 129 123 121 124 125 118 112 110 103 102 102 99 101 99 100 102 93 91 81 87 88 86 84 85 84
333 350 43 71 73 39 287 265 196 176 131 124 89 85 94 121 111 119 130 187 154 142 141 139 135 132 131 131 130 127 124 121 114 108 104 103 104 102 102 103 93 87 85 92 90 86 86 86 85
25 40 71 81 95 156 243 219 158 100 136 55 106 23 137 169 161 161 193 151 145 141 137 138 133 136 139 134 134 132 127 124 120 115 111 105 104 104 109 96 98 90 84 90 90 88 89 90 90
9 13 42 77 6 264 219 199 141 121 287 60 115 103 300 240 166 191 152 146 145 141 141 147 137 137 138 135 134 133 132 129 127 121 116 109 102 95 100 97 87 85 85 93 92 91 94 95 93
26 60 43 46 303 276 269 216 156 152 150 142 166 186 180 9 119 142 149 148 148 147 147 152 148 140 138 145 149 144 137 132 131 124 118 112 109 106 102 103 92 93 96 94 98 98 101 100 94
32 92 68 338 284 296 294 158 148 144 142 153 138 147 188 100 143 156 149 154 150 149 156 153 142 132 136 152 152 154 133 134 139 135 123 114 108 104 105 107 105 107 105 101 105 101 102 101 100
84 61 191 184 266 318 239 137 193 171 170 234 158 145 211 175 179 156 152 143 149 147 153 153 147 143 128 127 139 135 120 119 126 130 131 124 113 100 96 98 108 114 108 99 102 105 103 102 101
92 89 164 225 184 270 187 175 226 166 220 78 174 193 203 191 156 139 138 140 151 152 159 156 150 142 135 131 108 103 104 101 87 86 85 102 102 99 93 80 93 107 107 101 94 94 105 107 107
132 76 210 221 151 248 139 196 182 120 130 240 192 164 147 136 142 136 138 133 158 165 167 162 151 144 140 129 113 90 85 92 100 97 94 92 104 113 107 95 91 101 111 114 106 96 96 100 106
92 181 213 245 203 281 236 213 186 174 156 235 242 188 128 153 159 166 176 175 176 182 184 174 161 156 144 137 128 119 123 129 120 113 109 102 115 124 122 106 95 89 89 100 105 101 95 109 127
175 162 303 293 352 342 293 253 179 156 216 213 206 168 167 166 175 179 183 185 184 187 185 185 169 167 157 153 150 143 138 129 122 123 127 133 133 134 130 127 123 127 111 113 96 98 100 132 155
139 179 288 323 334 355 310 306 224 203 225 284 214 161 169 181 186 186 190 188 189 183 185 186 173 173 173 157 165 162 159 159 156 161 159 158 153 157 157 157 158 161 151 142 120 136 143 148 173
183 201 159 279 312 315 293 248 244 239 245 346 143 158 178 188 193 194 196 193 187 185 183 189 185 174 175 173 173 181 181 176 179 181 181 171 175 179 177 185 184 187 173 187 187 184 180 199 209
188 182 178 240 298 261 253 277 171 262 189 162 174 189 186 190 193 187 180 192 192 191 189 183 188 185 175 184 183 188 191 188 186 191 192 190 186 184 194 198 204 200 208 210 238 242 234 234 229
128 193 219 206 167 286 7 280 229 245 181 207 211 201 199 201 181 195 194 194 192 197 186 188 189 186 190 192 187 188 199 197 195 198 198 196 194 200 199 202 205 211 208 212 222 234 235 248 245
140 110 238 174 131 271 152 261 288 234 178 235 223 207 205 211 213 201 192 196 191 187 187 185 187 189 193 197 196 196 196 202 208 205 204 205 204 201 204 208 214 211 209 215 223 229 242 251 249
204 201 194 270 191 120 118 285 268 205 191 238 245 223 218 222 226 214 202 196 190 191 185 189 189 192 195 199 199 198 200 204 208 210 211 213 211 208 213 217 222 209 214 220 226 229 230 241 244
188 211 174 191 154 180 165 247 266 270 223 241 248 249 228 227 227 217 205 199 192 193 192 191 191 197 195 194 201 206 202 210 208 214 214 211 212 208 212 222 224 215 222 230 223 229 221 240 248
161 174 201 170 153 137 217 253 262 232 219 253 241 240 234 232 243 214 204 197 193 194 195 195 192 197 187 187 193 214 214 210 215 215 215 211 209 207 212 221 219 215 221 224 218 220 232 240 228
268 188 179 259 138 195 192 258 254 252 237 233 235 236 233 239 234 217 209 196 201 204 204 200 204 194 193 195 198 201 190 214 216 207 212 214 211 208 210 216 220 215 220 225 221 212 226 238 192
234 217 167 168 134 275 36 272 253 254 244 244 239 242 234 222 232 230 209 205 206 208 204 204 205 199 196 197 182 164 165 166 187 208 212 213 212 212 211 214 221 220 215 226 222 212 214 237 208
233 211 194 152 165 234 180 275 240 223 239 228 235 224 234 223 228 228 211 205 206 218 209 210 206 204 201 190 192 200 207 216 214 215 211 209 206 214 213 217 218 219 214 223 219 210 218 218 236
229 163 205 224 235 278 204 272 277 182 233 243 243 233 230 221 216 221 216 211 210 207 206 204 203 203 201 195 200 201 211 219 212 204 206 212 206 213 213 215 214 219 218 225 221 213 213 211 227
147 147 146 148 218 234 226 219 256 231 201 241 249 251 233 210 218 223 217 210 215 202 205 202 198 207 197 198 203 204 211 214 206 205 206 212 211 209 215 211 215 221 225 227 226 230 225 221 225
187 209 219 236 227 231 204 198 232 255 203 214 233 244 246 208 209 220 211 203 202 199 201 199 195 204 196 197 200 209 210 210 214 212 210 203 202 211 213 206 212 221 224 228 222 222 225 221 223
211 202 197 199 197 229 148 225 232 228 225 209 231 241 264 229 222 224 214 208 207 209 203 199 195 202 196 195 203 208 209 211 215 214 209 211 215 219 201 201 213 220 223 224 220 223 229 225 227
204 210 219 19 57 350 178 268 275 205 254 257 245 250 252 253 235 221 213 219 215 208 204 198 193 200 196 199 198 201 204 205 210 212 208 210 206 207 196 203 208 219 220 223 221 224 228 227 229
216 193 201 216 204 229 234 241 236 201 217 227 240 242 244 244 242 237 215 214 208 209 205 199 197 195 193 188 192 200 201 205 210 194 200 200 206 200 205 208 214 220 224 226 221 230 234 234 235
212 231 215 220 209 235 247 250 194 210 208 218 225 240 247 240 238 246 232 228 205 194 192 201 193 181 181 185 189 193 193 192 194 204 202 204 202 199 209 215 219 220 222 223 228 229 233 232 248
243 237 254 209 207 225 230 244 171 214 198 209 217 226 242 245 262 236 209 213 198 196 193 198 190 187 192 183 168 171 156 168 189 200 199 194 206 203 214 217 221 221 222 223 228 243 236 239 248